FW4455 Weather Reports


Display with metric or nautical units.
time (UTC)temp
F
wind
direction
speed
MPH
gust
MPH
rain 1hr
in
rain 24hr
in
rain mn
in
humidity
%
barometer
mb
20260510093015 66 47 0.0 1.0 0.01 2.52 0.01 99 1013.0
20260510091514 66 47 0.0 1.0 0.01 2.52 0.01 99 1013.1
20260510090016 66 47 0.0 1.0 0.00 2.50 0.00 99 1013.1
20260510084508 66 47 0.0 1.0 0.00 2.50 0.00 99 1013.0
20260510083005 66 47 0.0 0.0 0.00 2.50 0.00 99 1013.0
20260510081510 66 47 0.0 1.0 0.00 2.50 0.00 99 1012.9
20260510074559 67 47 0.0 1.0 0.00 2.50 0.00 99 1013.0
20260510073104 67 46 0.0 1.0 0.00 2.50 0.00 99 1013.0
20260510071558 67 46 0.0 1.0 0.00 2.50 0.00 99 1012.8
20260510070053 67 46 0.0 1.0 0.00 2.50 0.00 99 1012.8
20260510064557 67 46 0.0 1.0 0.00 2.50 0.00 99 1012.8
20260510063050 67 49 0.0 1.0 0.00 2.50 0.00 99 1012.7
20260510061549 67 49 0.0 1.0 0.00 2.50 0.00 99 1012.8
20260510060050 67 49 0.0 1.0 0.00 2.50 0.00 99 1012.9
20260510054545 67 49 0.0 1.0 0.00 2.50 0.00 99 1013.0
20260510053055 67 49 0.0 1.0 0.00 2.50 0.00 99 1012.9
20260510051545 67 49 0.0 1.0 0.00 2.50 0.00 99 1012.9
20260510050036 67 6 0.0 1.0 0.00 2.50 0.00 99 1013.1
20260510044546 67 6 0.0 1.0 0.00 2.50 2.50 99 1013.2
20260510043041 67 20 0.0 2.0 0.00 2.50 2.50 99 1013.1
20260510041533 67 124 0.0 3.0 0.00 2.50 2.50 99 1012.6
20260510040039 67 203 0.0 0.0 0.00 2.50 2.50 99 1012.4
20260510034527 67 182 0.0 4.0 0.00 2.50 2.50 99 1012.4
20260510033037 67 153 2.0 8.0 0.00 2.50 2.50 99 1012.4
20260510031523 67 165 1.0 10.0 0.00 2.50 2.50 99 1012.3
20260510030022 67 139 0.0 2.0 0.00 2.50 2.50 99 1012.3
20260510024520 67 142 0.0 2.0 0.00 2.52 2.50 99 1013.1
20260510023017 67 127 0.0 4.0 0.00 2.52 2.50 99 1013.0
20260510021616 66 146 0.0 5.0 0.00 2.52 2.50 99 1012.5
20260510020020 66 201 0.0 0.0 0.00 2.52 2.50 99 1012.6
20260510014512 66 210 0.0 1.0 0.00 2.52 2.50 99 1013.0
20260510013010 66 296 0.0 1.0 0.00 2.52 2.50 99 1013.5
20260510011514 66 296 0.0 0.0 0.00 2.52 2.50 99 1013.5
20260510010007 66 296 0.0 1.0 0.00 2.52 2.50 99 1013.0
20260510004506 66 30 0.0 1.0 0.00 2.52 2.50 99 1012.9
20260510003003 66 30 0.0 1.0 0.00 2.52 2.50 99 1012.8
20260510001501 66 148 0.0 2.0 0.00 2.52 2.50 99 1012.2
20260510000103 66 165 0.0 2.0 0.02 2.52 2.50 99 1011.8
20260509234600 66 150 0.0 1.0 0.04 2.52 2.50 99 1011.4
20260509233102 66 225 0.0 4.0 0.05 2.52 2.50 99 1011.0
20260509231554 66 127 0.0 2.0 0.06 2.52 2.50 99 1011.2
20260509230052 66 165 0.0 0.0 0.06 2.50 2.49 99 1011.4
20260509224548 66 165 0.0 0.0 0.06 2.49 2.47 99 1012.0
20260509223052 66 176 0.0 1.0 0.07 2.48 2.46 99 1012.3
20260509221545 66 95 0.0 1.0 0.08 2.47 2.45 98 1011.9
20260509220042 66 219 0.0 2.0 0.09 2.44 2.42 98 1012.5
20260509214541 66 101 0.0 1.0 0.12 2.50 2.41 98 1011.5
20260509213039 66 163 0.0 4.0 0.10 2.49 2.39 98 1011.7
20260509211537 66 169 0.0 1.0 0.08 2.47 2.37 99 1011.8
20260509210037 66 150 0.0 1.0 0.04 2.43 2.33 98 1012.4
20260509204534 66 167 0.0 1.0 0.02 2.43 2.29 98 1012.6
20260509203032 66 148 0.0 1.0 0.07 2.43 2.29 98 1012.6
20260509201530 66 47 0.0 1.0 0.11 2.43 2.29 98 1012.0
20260509200028 66 57 0.0 4.0 0.16 2.43 2.29 98 1011.7
20260509194524 66 61 1.0 3.0 0.18 2.79 2.27 98 1011.8
20260509193033 66 127 0.0 4.0 0.23 2.74 2.22 98 1012.6
20260509191523 66 131 0.0 3.0 0.21 2.69 2.17 98 1012.5
20260509190022 66 32 0.0 5.0 0.21 2.65 2.13 98 1013.0
20260509184524 66 144 0.0 4.0 0.18 3.88 2.09 99 1013.1
20260509183016 66 165 0.0 0.0 0.09 3.78 1.99 99 1012.9
20260509181514 67 222 2.0 7.0 0.06 3.74 1.95 99 1013.1
20260509180012 67 156 0.0 1.0 0.07 3.71 1.92 99 1012.5
20260509174513 67 5 0.0 2.0 0.06 4.26 1.91 99 1012.3
20260509173007 67 140 0.0 6.0 0.18 4.25 1.90 99 1012.4
20260509171508 67 91 0.0 3.0 0.17 4.24 1.89 99 1012.7
20260509170005 66 157 0.0 1.0 0.13 4.20 1.85 99 1012.4
20260509164502 66 72 0.0 2.0 0.13 4.20 1.85 98 1012.9
20260509163121 66 195 0.0 5.0 0.00 4.07 1.72 99 1013.1
20260509161559 66 118 0.0 2.0 0.01 4.07 1.72 98 1012.8
20260509160057 65 72 0.0 3.0 0.01 4.07 1.72 98 1012.9
20260509154555 65 74 0.0 1.0 0.02 4.07 1.72 98 1013.1
20260509153055 65 219 0.0 1.0 0.03 4.07 1.72 98 1013.1
20260509151552 65 72 0.0 2.0 0.08 4.05 1.71 98 1012.8
20260509150103 65 162 0.0 1.0 0.34 4.05 1.71 98 1012.6
20260509144649 65 153 0.0 2.0 0.56 4.05 1.70 98 1012.7
20260509143049 64 151 0.0 0.0 0.72 4.04 1.69 98 1012.6
20260509141545 64 62 0.0 1.0 0.76 3.97 1.62 98 1012.6
20260509140042 64 176 0.0 2.0 0.54 3.72 1.37 98 1012.9
20260509134543 64 55 0.0 2.0 0.45 3.47 1.12 98 1012.5
20260509133038 64 220 0.0 1.0 0.62 3.31 0.96 98 1013.1
20260509131540 64 75 0.0 1.0 0.81 3.20 0.85 98 1012.8
20260509130036 64 56 1.0 4.0 0.83 3.18 0.83 97 1012.4
20260509124543 64 54 1.0 3.0 0.67 3.02 0.67 97 1012.8
20260509123029 65 6 1.0 6.0 0.33 2.68 0.33 96 1013.2
20260509121527 67 3 4.0 15.0 0.03 2.38 0.03 94 1013.6
20260509120018 70 11 4.0 10.0 0.00 2.35 0.00 98 1012.2
20260509114514 70 145 0.0 1.0 0.00 2.35 0.00 98 1011.1
20260509113013 70 145 0.0 1.0 0.00 2.35 0.00 98 1010.7
20260509111511 69 198 0.0 3.0 0.00 2.35 0.00 98 1010.2
20260509110010 69 175 0.0 1.0 0.00 2.35 0.00 98 1009.8
20260509104522 69 195 0.0 0.0 0.00 2.35 0.00 98 1009.7
20260509103004 69 163 0.0 5.0 0.00 2.35 0.00 99 1010.1
20260509101502 69 198 0.0 4.0 0.00 2.35 0.00 99 1010.1
20260509100105 69 117 0.0 4.0 0.00 2.35 0.00 99 1009.8
20260509094556 68 115 0.0 4.0 0.00 2.35 0.00 99 1009.2